This is the latest recevied weather packets stored in our database for station/object NR6G-5. If no packets are shown the sender has not sent any weather packets the latest 10 day(s).
| Time | Temp. | Humidity | Pressure | Rain* | Wind** | Luminosity | Snow |
|---|---|---|---|---|---|---|---|
| 1777611088 | 21.67° C | 51% | 1010.4 hPa | 0 mm | - | - | - |
| 1777610486 | 21.67° C | 47% | 1010.4 hPa | 0 mm | - | - | - |
| 1777609897 | 21.67° C | 50% | 1010.4 hPa | 0 mm | - | - | - |
| 1777609286 | 22.22° C | 49% | 1010.3 hPa | 0 mm | - | - | - |
| 1777608986 | 22.22° C | 46% | 1010.3 hPa | 0 mm | - | - | - |
| 1777608686 | 22.78° C | 47% | 1010.2 hPa | 0 mm | - | - | - |
| 1777608386 | 22.22° C | 47% | 1010.1 hPa | 0 mm | - | - | - |
| 1777608086 | 22.78° C | 48% | 1010 hPa | 0 mm | - | - | - |
| 1777607785 | 22.78° C | 48% | 1010 hPa | 0 mm | - | - | - |
| 1777607487 | 23.33° C | 49% | 1009.9 hPa | 0 mm | - | - | - |
| 1777607185 | 23.33° C | 48% | 1009.8 hPa | 0 mm | - | - | - |
| 1777606887 | 23.33° C | 47% | 1009.8 hPa | 0 mm | - | - | - |
| 1777606588 | 23.33° C | 47% | 1009.7 hPa | 0 mm | - | - | - |
| 1777606287 | 23.33° C | 47% | 1009.7 hPa | 0 mm | - | - | - |
| 1777605148 | 23.89° C | 42% | 1009.4 hPa | 0 mm | - | - | - |
| 1777604847 | 24.44° C | 43% | 1009.4 hPa | 0 mm | - | - | - |
| 1777604446 | 24.44° C | 42% | 1009.3 hPa | 0 mm | - | - | - |
| 1777603846 | 25° C | 40% | 1009.2 hPa | 0 mm | - | - | - |
| 1777603208 | 25.56° C | 37% | 1009 hPa | 0 mm | - | - | - |
| 1777602907 | 26.11° C | 36% | 1008.9 hPa | 0 mm | - | - | - |
| 1777602306 | 26.67° C | 34% | 1008.8 hPa | 0 mm | - | - | - |
| 1777602008 | 27.22° C | 33% | 1008.9 hPa | 0 mm | - | - | - |
| 1777601707 | 27.22° C | 32% | 1008.8 hPa | 0 mm | - | - | - |
| 1777600807 | 28.33° C | 31% | 1008.6 hPa | 0 mm | - | - | - |
| 1777600508 | 28.33° C | 30% | 1008.6 hPa | 0 mm | - | - | - |
* Rain latest hour (hover to see other rain measurements)
** Current wind speed in m/s (hover to see current wind gust speed)